Pine Bluff, AR

10:50 PM CST on February 08, 2016 (GMT -0600)
Grider

Weather History for KPBF - January, 2013

Change the Weather History Date:

Monday, January 21, 2013

  Actual Average Record
Temperature  
Mean Temperature 39 °F 42 °F  
Max Temperature 45 °F 52 °F 78 °F (1911)
Min Temperature 32 °F 33 °F 5 °F (1985)
Degree Days  
Heating Degree Days 26 23  
Month to date heating degree days 455 483  
Since 1 July heating degree days 1519 1636  
Cooling Degree Days 0 0  
Month to date cooling degree days 3 0  
Year to date cooling degree days 3 0  
Moisture  
Dew Point 26 °F    
Average Humidity 63    
Maximum Humidity 85    
Minimum Humidity 41    
Precipitation  
Precipitation 0.00 in 0.12 in 2.04 in (1937)
Month to date precipitation 5.04 2.52  
Year to date precipitation 5.04 2.52  
Snow  
Snow 0.00 in 0.10 in 2.00 in (1954)
Month to date snowfall 0.1 1.1  
Since 1 July snowfall 2.1 1.3  
Snow Depth 0.00 in    
Sea Level Pressure  
Sea Level Pressure 30.30 in    
Wind  
Wind Speed 8 mph (NNE)    
Max Wind Speed 16 mph    
Max Gust Speed -    
Visibility 10 miles    
Events      
T = Trace of Precipitation, MM = Missing Value Source: NWS Daily Summary

Daily Weather History Graph

Daily Weather History Graph

Search for Another Location

Airport or City:

Trip Planner

Search our weather history database for the weather conditions in past years. The results will help you decide how hot, cold, wet, or windy it might be!

Date:

Astronomy

Jan. 21, 2013 Rise Set
Actual Time 7:11 AM CST 5:27 PM CST
Civil Twilight 6:44 AM CST 5:54 PM CST
Nautical Twilight 6:13 AM CST 6:24 PM CST
Astronomical Twilight 5:43 AM CST 6:54 PM CST
Moon 1:08 PM CST (1/21) 2:39 AM CST (1/21)
Length of Visible Light 11h 09m
Length of Day
10h 16m
Waxing Gibbous, 75% of the Moon is Illuminated
Jan 21
Waxing Gibbous
Jan 26
Full
Feb 3
Last Quarter
Feb 10
New
Feb 17
First Quarter

Hourly Weather History & Observations

Time (CST) Temp. Windchill Dew Point Humidity Pressure Visibility Wind Dir Wind Speed Gust Speed Precip Events Conditions
12:53 AM - - - N/A% 30.18 in - North - - N/A   Unknown
1:53 AM - - - N/A% 30.19 in - North - - N/A   Unknown
2:53 AM 39.0 °F 35.7 °F 35.1 °F 86% 30.20 in 10.0 mi North 4.6 mph - N/A   Unknown
3:53 AM 37.9 °F 32.7 °F 34.0 °F 86% 30.22 in 10.0 mi North 6.9 mph - N/A   Scattered Clouds
4:53 AM 39.0 °F 30.6 °F 33.1 °F 79% 30.24 in 10.0 mi North 15.0 mph - N/A   Scattered Clouds
5:53 AM 36.0 °F 27.1 °F 30.9 °F 82% 30.26 in 10.0 mi North 13.8 mph - N/A   Mostly Cloudy
6:53 AM 35.1 °F 25.2 °F 27.0 °F 72% 30.30 in 10.0 mi NNE 16.1 mph - N/A   Overcast
7:53 AM 34.0 °F - 25.0 °F 70% 30.34 in - North - - N/A   Unknown
8:53 AM - - - N/A% 30.36 in - North - - N/A   Unknown
9:53 AM - - - N/A% 30.38 in - North - - N/A   Unknown
10:53 AM - - - N/A% 30.37 in - North - - N/A   Unknown
11:53 AM 42.1 °F 34.9 °F 23.0 °F 47% 30.35 in - NNE 13.8 mph - N/A   Unknown
12:53 PM 43.0 °F 37.7 °F 23.0 °F 45% 30.32 in 10.0 mi NNE 9.2 mph - N/A   Clear
1:53 PM 45.0 °F 40.6 °F 23.0 °F 42% 30.32 in 10.0 mi NNE 8.1 mph - N/A   Clear
2:53 PM 45.0 °F 40.6 °F 23.0 °F 42% 30.32 in 10.0 mi NNE 8.1 mph - N/A   Clear
3:53 PM 44.1 °F 41.5 °F 23.0 °F 43% 30.31 in 10.0 mi NE 4.6 mph - N/A   Clear
4:53 PM 42.1 °F 37.7 °F 24.1 °F 49% 30.30 in 10.0 mi NE 6.9 mph - N/A   Clear
5:53 PM 39.9 °F 35.8 °F 24.1 °F 53% 30.32 in 10.0 mi NE 5.8 mph - N/A   Clear
6:53 PM 36.0 °F 30.3 °F 27.0 °F 70% 30.31 in 10.0 mi ENE 6.9 mph - N/A   Clear
7:53 PM 36.0 °F 30.3 °F 26.1 °F 67% 30.31 in 10.0 mi NE 6.9 mph - N/A   Clear
8:53 PM 34.0 °F 28.8 °F 24.1 °F 67% 30.33 in 10.0 mi NE 5.8 mph - N/A   Partly Cloudy
9:53 PM 32.0 °F 28.7 °F 25.0 °F 75% 30.34 in 10.0 mi ENE 3.5 mph - N/A   Partly Cloudy
10:53 PM 32.0 °F 27.5 °F 25.0 °F 75% 30.34 in 10.0 mi ENE 4.6 mph - N/A   Clear
11:53 PM 30.9 °F 27.5 °F 24.1 °F 76% 30.35 in 10.0 mi NNE 3.5 mph - N/A   Clear